Content
SEND FEEDBACK

Daily
Averages
Monthly
Summary
Canada

VANCOUVER, BRITISH COLUMBIA


Home > North America > Canada > British Columbia
Elevation: 7 feet     Latitude: 49 11N     Longitude: 123 10W

WEATHER
 
SELECT A DAY
Number of Records: 253,003;   Date Range: 5/15/97 - 10/21/14
 
SHARE

PRINT THIS DATA

[ ← Previous Day ]
WEATHER ALMANAC - JULY 23, 2013
[ Next Day → ]
[ °C ]   °F
Weather ElementAverageHighLow
Temperature62.9 °F75.2 °F (4:15 pm)53.6 °F (4:55 am)
Dewpoint54.9 °F59 °F (1:55 pm)51.8 °F (7:35 pm)
Humidity77.3 %100 % (4:55 am)47 % (4:35 pm)
Barometer30.02 in30.07 in (8:35 am)29.96 in (7:35 pm)
Wind Speed3.8 mph10.4 mph (8:35 pm)
Weather ElementAverage
Visibility9.5 mi
Wind DirectionESE (107.6 °)

Weather ElementTotal
Precipitation---
Heating Degree Days0.6 (Base 65)
Growing Degree Days14.4 (Base 50)
Averaged from 70 records on July 23, 2013
WEATHER CONDITIONS BREAKOUT
WIND DIRECTION BREAKOUT
WEATHER BY HOUR - JULY 23, 2013
[ °C ]   °F
Local TimeTemperatureDewpointHumidityBarometerVisibilityWind DirectionWind SpeedGust SpeedPrecipitationEventsConditions
12:35 AM59.0 °F55.4 °F88 %30.02 in9.0 miCalmClear
12:55 AM57.2 °F55.4 °F94 %30.02 in9.0 miNorthClear
1:15 AM57.2 °F55.4 °F94 %30.03 in9.0 miSouth (170°)3.5 mphClear
1:35 AM57.2 °F55.4 °F94 %30.02 in9.0 miSouth (170°)3.5 mphClear
1:55 AM57.2 °F55.4 °F94 %30.02 in8.0 miSouth (170°)3.5 mphClear
2:15 AM57.2 °F55.4 °F94 %30.03 in9.0 miSouth (170°)4.6 mphClear
2:35 AM55.4 °F53.6 °F94 %30.03 in10.0 miSSE (160°)4.6 mphClear
2:55 AM55.4 °F53.6 °F94 %30.02 in10.0 miSSE (160°)5.8 mphClear
3:15 AM55.4 °F53.6 °F94 %30.03 in10.0 miNorthClear
3:35 AM55.4 °F53.6 °F94 %30.03 in10.0 miSouth (170°)3.5 mphClear
3:55 AM55.4 °F53.6 °F94 %30.03 in10.0 miSouth (180°)5.8 mphClear
4:15 AM55.4 °F53.6 °F94 %30.04 in10.0 miNorthClear
4:35 AM55.4 °F53.6 °F94 %30.04 in10.0 miCalmClear
4:55 AM53.6 °F53.6 °F100 %30.04 in10.0 miSouth (170°)3.5 mphClear
5:15 AM53.6 °F53.6 °F100 %30.04 in10.0 miNorthClear
5:35 AM53.6 °F53.6 °F100 %30.05 in9.0 miCalmClear
5:55 AM53.6 °F53.6 °F100 %30.05 in8.0 miCalmClear
6:15 AM53.6 °F53.6 °F100 %30.05 in8.0 miNorthClear
6:35 AM53.6 °F53.6 °F100 %30.06 in9.0 miNorthClear
6:55 AM55.4 °F53.6 °F94 %30.06 in8.0 miCalmClear
7:15 AM55.4 °F53.6 °F94 %30.06 in10.0 miCalmClear
7:35 AM57.2 °F53.6 °F88 %30.06 in9.0 miCalmClear
7:55 AM57.2 °F55.4 °F94 %30.06 in9.0 miSSW (200°)4.6 mphClear
8:15 AM57.2 °F55.4 °F94 %30.06 in9.0 miCalmClear
8:35 AM57.2 °F55.4 °F94 %30.07 in8.0 miCalmClear
8:55 AM59.0 °F55.4 °F88 %30.07 in10.0 miCalmClear
9:15 AM59.0 °F55.4 °F88 %30.06 in10.0 miCalmClear
9:35 AM59.0 °F55.4 °F88 %30.07 in9.0 miCalmClear
9:55 AM59.0 °F55.4 °F88 %30.06 in9.0 miCalmClear
10:15 AM59.0 °F55.4 °F88 %30.06 in10.0 miNorth (10°)4.6 mphClear
10:35 AM60.8 °F55.4 °F82 %30.06 in9.0 miNorth (360°)4.6 mphClear
10:55 AM62.6 °F55.4 °F77 %30.06 in10.0 miCalmClear
11:15 AM66.2 °F57.2 °F73 %30.05 in9.0 miNorth (360°)3.5 mphClear
11:35 AM66.2 °F57.2 °F73 %30.05 in10.0 miCalmClear
11:55 AM66.2 °F57.2 °F73 %30.05 in9.0 miNorth (360°)4.6 mphClear
12:15 PM66.2 °F57.2 °F73 %30.05 in8.0 miNorth (10°)5.8 mphClear
12:35 PM66.2 °F57.2 °F73 %30.04 in10.0 miNorth (10°)5.8 mphClear
1:15 PM68.0 °F57.2 °F68 %30.03 in10.0 miNorth (10°)4.6 mphClear
1:35 PM66.2 °F57.2 °F73 %30.03 in9.0 miNorth (10°)5.8 mphClear
1:55 PM68.0 °F59.0 °F73 %30.03 in9.0 miNorth (360°)4.6 mphClear
2:15 PM68.0 °F59.0 °F73 %30.02 in10.0 miNorth (10°)4.6 mphClear
2:35 PM68.0 °F57.2 °F68 %30.02 in9.0 miNorth (10°)4.6 mphClear
2:55 PM69.8 °F57.2 °F64 %30.01 in9.0 miNorth (10°)4.6 mphClear
3:15 PM73.4 °F55.4 °F53 %30.01 in10.0 miNorth (360°)4.6 mphClear
3:35 PM73.4 °F57.2 °F57 %30.00 in10.0 miNorth (10°)3.5 mphClear
3:55 PM71.6 °F57.2 °F60 %30.00 in10.0 miNorth (10°)4.6 mphClear
4:15 PM75.2 °F55.4 °F50 %29.99 in10.0 miNorth (350°)5.8 mphClear
4:35 PM75.2 °F53.6 °F47 %29.99 in10.0 miNorth (350°)4.6 mphClear
4:55 PM71.6 °F55.4 °F57 %29.99 in10.0 miCalmClear
5:15 PM71.6 °F55.4 °F57 %29.98 in10.0 miNorthClear
5:35 PM71.6 °F57.2 °F60 %29.97 in10.0 miCalmClear
5:55 PM71.6 °F55.4 °F57 %29.97 in10.0 miCalmClear
6:15 PM71.6 °F55.4 °F57 %29.97 in10.0 miSSW (200°)6.9 mphClear
6:35 PM73.4 °F55.4 °F53 %29.97 in10.0 miSouth (170°)4.6 mphClear
6:55 PM73.4 °F55.4 °F53 %29.97 in10.0 miSouth (180°)5.8 mphClear
7:15 PM73.4 °F53.6 °F50 %29.97 in10.0 miSouth (190°)9.2 mphClear
7:35 PM71.6 °F51.8 °F50 %29.96 in10.0 miSouth (190°)8.1 mphClear
7:55 PM71.6 °F51.8 °F50 %29.96 in10.0 miSouth (190°)9.2 mphClear
8:15 PM69.8 °F53.6 °F56 %29.96 in10.0 miSouth (190°)8.1 mphClear
8:35 PM68.0 °F53.6 °F60 %29.96 in9.0 miSouth (180°)10.4 mphClear
8:55 PM66.2 °F53.6 °F64 %29.96 in10.0 miSouth (180°)8.1 mphClear
9:15 PM64.4 °F53.6 °F68 %29.97 in9.0 miSouth (170°)6.9 mphClear
9:35 PM64.4 °F53.6 °F68 %29.97 in10.0 miSouth (170°)3.5 mphClear
9:55 PM62.6 °F53.6 °F72 %29.98 in10.0 miSSE (160°)3.5 mphClear
10:15 PM62.6 °F53.6 °F72 %29.98 in10.0 miSouth (170°)4.6 mphClear
10:35 PM62.6 °F53.6 °F72 %29.98 in10.0 miSouth (170°)4.6 mphClear
10:55 PM62.6 °F53.6 °F72 %29.98 in10.0 miSSE (160°)4.6 mphClear
11:15 PM60.8 °F53.6 °F77 %29.98 in10.0 miSouth (170°)3.5 mphClear
11:35 PM59.0 °F53.6 °F82 %29.99 in10.0 miSouth (180°)5.8 mphClear
11:55 PM59.0 °F53.6 °F82 %29.99 in10.0 miSouth (190°)5.8 mphClear
Hourly data recorded from CZBB, located miles away from Vancouver, British Columbia







STORIES FROM OUR PARTNERS